<?xml version="1.0" encoding="UTF-8"?>
<gpx
version="1.1"
creator="Kashmir3D 9.350 - http://www.kashmir3d.com"
xmlns:xsi="http://www.w3.org/2001/XMLSchema-instance"
xmlns="http://www.topografix.com/GPX/1/1"
xmlns:kashmir3d="http://www.kashmir3d.com/namespace/kashmir3d"
xsi:schemaLocation="http://www.topografix.com/GPX/1/1 http://www.topografix.com/GPX/1/1/gpx.xsd
	http://www.kashmir3d.com/namespace/kashmir3d http://www.kashmir3d.com/namespace/kashmir3d.xsd">
<trk>
 <name>KOUNOSAN.KML(交野山)</name>
 <number>1</number>
 <extensions>
 <kashmir3d:line_color>0000ff</kashmir3d:line_color>
 <kashmir3d:line_size>3</kashmir3d:line_size>
 <kashmir3d:line_style>1</kashmir3d:line_style>
 <kashmir3d:icon>901001</kashmir3d:icon>
 </extensions>
<trkseg>
<trkpt lat="34.801170" lon="135.697543">
 <ele>49.3</ele>
 <time>2020-03-24T15:27:50Z</time>
</trkpt>
<trkpt lat="34.801179" lon="135.697446">
 <ele>49.2</ele>
 <time>2020-03-24T15:27:50Z</time>
</trkpt>
<trkpt lat="34.800938" lon="135.697446">
 <ele>49.1</ele>
 <time>2020-03-24T15:27:50Z</time>
</trkpt>
<trkpt lat="34.800964" lon="135.697328">
 <ele>49.1</ele>
 <time>2020-03-24T15:27:50Z</time>
</trkpt>
<trkpt lat="34.801007" lon="135.697200">
 <ele>49.2</ele>
 <time>2020-03-24T15:27:50Z</time>
</trkpt>
<trkpt lat="34.801050" lon="135.697146">
 <ele>49.2</ele>
 <time>2020-03-24T15:27:50Z</time>
</trkpt>
<trkpt lat="34.801058" lon="135.697028">
 <ele>49.1</ele>
 <time>2020-03-24T15:27:50Z</time>
</trkpt>
<trkpt lat="34.800810" lon="135.696921">
 <ele>49</ele>
 <time>2020-03-24T15:27:51Z</time>
</trkpt>
<trkpt lat="34.800483" lon="135.696771">
 <ele>48.6</ele>
 <time>2020-03-24T15:27:51Z</time>
</trkpt>
<trkpt lat="34.800277" lon="135.696652">
 <ele>48.6</ele>
 <time>2020-03-24T15:27:51Z</time>
</trkpt>
<trkpt lat="34.799951" lon="135.696449">
 <ele>47.8</ele>
 <time>2020-03-24T15:27:51Z</time>
</trkpt>
<trkpt lat="34.799496" lon="135.696127">
 <ele>47.3</ele>
 <time>2020-03-24T15:27:51Z</time>
</trkpt>
<trkpt lat="34.799110" lon="135.695901">
 <ele>46.8</ele>
 <time>2020-03-24T15:27:51Z</time>
</trkpt>
<trkpt lat="34.798561" lon="135.695633">
 <ele>46.1</ele>
 <time>2020-03-24T15:27:51Z</time>
</trkpt>
<trkpt lat="34.798175" lon="135.695462">
 <ele>45.7</ele>
 <time>2020-03-24T15:27:51Z</time>
</trkpt>
<trkpt lat="34.797806" lon="135.695183">
 <ele>43.6</ele>
 <time>2020-03-24T15:27:52Z</time>
</trkpt>
<trkpt lat="34.797531" lon="135.694882">
 <ele>42.9</ele>
 <time>2020-03-24T15:27:52Z</time>
</trkpt>
<trkpt lat="34.797325" lon="135.694603">
 <ele>41.6</ele>
 <time>2020-03-24T15:27:52Z</time>
</trkpt>
<trkpt lat="34.797016" lon="135.694281">
 <ele>40</ele>
 <time>2020-03-24T15:27:52Z</time>
</trkpt>
<trkpt lat="34.796724" lon="135.693927">
 <ele>38.9</ele>
 <time>2020-03-24T15:27:52Z</time>
</trkpt>
<trkpt lat="34.796458" lon="135.693702">
 <ele>38.3</ele>
 <time>2020-03-24T15:27:52Z</time>
</trkpt>
<trkpt lat="34.796192" lon="135.693520">
 <ele>37.6</ele>
 <time>2020-03-24T15:27:52Z</time>
</trkpt>
<trkpt lat="34.796046" lon="135.693423">
 <ele>37.7</ele>
 <time>2020-03-24T15:27:53Z</time>
</trkpt>
<trkpt lat="34.795677" lon="135.693251">
 <ele>37.5</ele>
 <time>2020-03-24T15:27:53Z</time>
</trkpt>
<trkpt lat="34.795488" lon="135.693176">
 <ele>38.1</ele>
 <time>2020-03-24T15:27:53Z</time>
</trkpt>
<trkpt lat="34.795437" lon="135.693219">
 <ele>38.4</ele>
 <time>2020-03-24T15:27:53Z</time>
</trkpt>
<trkpt lat="34.795385" lon="135.693466">
 <ele>39</ele>
 <time>2020-03-24T15:27:53Z</time>
</trkpt>
<trkpt lat="34.795334" lon="135.693777">
 <ele>40</ele>
 <time>2020-03-24T15:27:53Z</time>
</trkpt>
<trkpt lat="34.795291" lon="135.694056">
 <ele>41.7</ele>
 <time>2020-03-24T15:27:53Z</time>
</trkpt>
<trkpt lat="34.795248" lon="135.694271">
 <ele>42.5</ele>
 <time>2020-03-24T15:27:53Z</time>
</trkpt>
<trkpt lat="34.795162" lon="135.694528">
 <ele>43.5</ele>
 <time>2020-03-24T15:27:54Z</time>
</trkpt>
<trkpt lat="34.795042" lon="135.694882">
 <ele>44.8</ele>
 <time>2020-03-24T15:27:54Z</time>
</trkpt>
<trkpt lat="34.794913" lon="135.695172">
 <ele>45.9</ele>
 <time>2020-03-24T15:27:54Z</time>
</trkpt>
<trkpt lat="34.794784" lon="135.695419">
 <ele>47.1</ele>
 <time>2020-03-24T15:27:54Z</time>
</trkpt>
<trkpt lat="34.794681" lon="135.695623">
 <ele>47.8</ele>
 <time>2020-03-24T15:27:54Z</time>
</trkpt>
<trkpt lat="34.794544" lon="135.695923">
 <ele>48.5</ele>
 <time>2020-03-24T15:27:54Z</time>
</trkpt>
<trkpt lat="34.794398" lon="135.696202">
 <ele>49.6</ele>
 <time>2020-03-24T15:27:54Z</time>
</trkpt>
<trkpt lat="34.794321" lon="135.696363">
 <ele>50.4</ele>
 <time>2020-03-24T15:27:54Z</time>
</trkpt>
<trkpt lat="34.794201" lon="135.696813">
 <ele>53.8</ele>
 <time>2020-03-24T15:27:55Z</time>
</trkpt>
<trkpt lat="34.794055" lon="135.697350">
 <ele>53.6</ele>
 <time>2020-03-24T15:27:55Z</time>
</trkpt>
<trkpt lat="34.793668" lon="135.698584">
 <ele>56.6</ele>
 <time>2020-03-24T15:27:55Z</time>
</trkpt>
<trkpt lat="34.793497" lon="135.699206">
 <ele>58.3</ele>
 <time>2020-03-24T15:27:55Z</time>
</trkpt>
<trkpt lat="34.793377" lon="135.699667">
 <ele>59.4</ele>
 <time>2020-03-24T15:27:55Z</time>
</trkpt>
<trkpt lat="34.793334" lon="135.699817">
 <ele>60</ele>
 <time>2020-03-24T15:27:55Z</time>
</trkpt>
<trkpt lat="34.793076" lon="135.699839">
 <ele>59.8</ele>
 <time>2020-03-24T15:27:55Z</time>
</trkpt>
<trkpt lat="34.792450" lon="135.699839">
 <ele>59.7</ele>
 <time>2020-03-24T15:27:55Z</time>
</trkpt>
<trkpt lat="34.792235" lon="135.699850">
 <ele>59.9</ele>
 <time>2020-03-24T15:27:56Z</time>
</trkpt>
<trkpt lat="34.792063" lon="135.699828">
 <ele>59.8</ele>
 <time>2020-03-24T15:27:56Z</time>
</trkpt>
<trkpt lat="34.791780" lon="135.699807">
 <ele>59.1</ele>
 <time>2020-03-24T15:27:56Z</time>
</trkpt>
<trkpt lat="34.791488" lon="135.699807">
 <ele>58.7</ele>
 <time>2020-03-24T15:27:56Z</time>
</trkpt>
<trkpt lat="34.791411" lon="135.699871">
 <ele>59.1</ele>
 <time>2020-03-24T15:27:56Z</time>
</trkpt>
<trkpt lat="34.791308" lon="135.700150">
 <ele>60.6</ele>
 <time>2020-03-24T15:27:56Z</time>
</trkpt>
<trkpt lat="34.791231" lon="135.700375">
 <ele>61.5</ele>
 <time>2020-03-24T15:27:56Z</time>
</trkpt>
<trkpt lat="34.791119" lon="135.700611">
 <ele>63.5</ele>
 <time>2020-03-24T15:27:56Z</time>
</trkpt>
<trkpt lat="34.790973" lon="135.700826">
 <ele>66.2</ele>
 <time>2020-03-24T15:27:57Z</time>
</trkpt>
<trkpt lat="34.790845" lon="135.701008">
 <ele>69.3</ele>
 <time>2020-03-24T15:27:57Z</time>
</trkpt>
<trkpt lat="34.790733" lon="135.701169">
 <ele>72.2</ele>
 <time>2020-03-24T15:27:57Z</time>
</trkpt>
<trkpt lat="34.790621" lon="135.701287">
 <ele>74.9</ele>
 <time>2020-03-24T15:27:57Z</time>
</trkpt>
<trkpt lat="34.790570" lon="135.701373">
 <ele>77.4</ele>
 <time>2020-03-24T15:27:57Z</time>
</trkpt>
<trkpt lat="34.790553" lon="135.701448">
 <ele>78.6</ele>
 <time>2020-03-24T15:27:57Z</time>
</trkpt>
<trkpt lat="34.790630" lon="135.701588">
 <ele>81.2</ele>
 <time>2020-03-24T15:27:57Z</time>
</trkpt>
<trkpt lat="34.790682" lon="135.701749">
 <ele>81.1</ele>
 <time>2020-03-24T15:27:58Z</time>
</trkpt>
<trkpt lat="34.790690" lon="135.701824">
 <ele>83.4</ele>
 <time>2020-03-24T15:27:58Z</time>
</trkpt>
<trkpt lat="34.790724" lon="135.701995">
 <ele>87.8</ele>
 <time>2020-03-24T15:27:58Z</time>
</trkpt>
<trkpt lat="34.790750" lon="135.702124">
 <ele>93.1</ele>
 <time>2020-03-24T15:27:58Z</time>
</trkpt>
<trkpt lat="34.790767" lon="135.702253">
 <ele>99.6</ele>
 <time>2020-03-24T15:27:58Z</time>
</trkpt>
<trkpt lat="34.790724" lon="135.702307">
 <ele>101.6</ele>
 <time>2020-03-24T15:27:58Z</time>
</trkpt>
<trkpt lat="34.790613" lon="135.702435">
 <ele>109.2</ele>
 <time>2020-03-24T15:27:58Z</time>
</trkpt>
<trkpt lat="34.790510" lon="135.702543">
 <ele>114</ele>
 <time>2020-03-24T15:27:58Z</time>
</trkpt>
<trkpt lat="34.790261" lon="135.702693">
 <ele>121.8</ele>
 <time>2020-03-24T15:27:59Z</time>
</trkpt>
<trkpt lat="34.790004" lon="135.702832">
 <ele>131.2</ele>
 <time>2020-03-24T15:27:59Z</time>
</trkpt>
<trkpt lat="34.789832" lon="135.702993">
 <ele>140</ele>
 <time>2020-03-24T15:27:59Z</time>
</trkpt>
<trkpt lat="34.789746" lon="135.703047">
 <ele>143.9</ele>
 <time>2020-03-24T15:27:59Z</time>
</trkpt>
<trkpt lat="34.789634" lon="135.703176">
 <ele>149.2</ele>
 <time>2020-03-24T15:27:59Z</time>
</trkpt>
<trkpt lat="34.789531" lon="135.703283">
 <ele>154.8</ele>
 <time>2020-03-24T15:27:59Z</time>
</trkpt>
<trkpt lat="34.789437" lon="135.703379">
 <ele>158.2</ele>
 <time>2020-03-24T15:27:59Z</time>
</trkpt>
<trkpt lat="34.789360" lon="135.703476">
 <ele>163.6</ele>
 <time>2020-03-24T15:27:59Z</time>
</trkpt>
<trkpt lat="34.789343" lon="135.703540">
 <ele>165.5</ele>
 <time>2020-03-24T15:28:00Z</time>
</trkpt>
<trkpt lat="34.789351" lon="135.703637">
 <ele>166.1</ele>
 <time>2020-03-24T15:28:00Z</time>
</trkpt>
<trkpt lat="34.789317" lon="135.703723">
 <ele>168.3</ele>
 <time>2020-03-24T15:28:00Z</time>
</trkpt>
<trkpt lat="34.789300" lon="135.703776">
 <ele>169.6</ele>
 <time>2020-03-24T15:28:00Z</time>
</trkpt>
<trkpt lat="34.789214" lon="135.703905">
 <ele>171.4</ele>
 <time>2020-03-24T15:28:00Z</time>
</trkpt>
<trkpt lat="34.789119" lon="135.703991">
 <ele>175.3</ele>
 <time>2020-03-24T15:28:00Z</time>
</trkpt>
<trkpt lat="34.789051" lon="135.704066">
 <ele>174.7</ele>
 <time>2020-03-24T15:28:00Z</time>
</trkpt>
<trkpt lat="34.789016" lon="135.704163">
 <ele>176.7</ele>
 <time>2020-03-24T15:28:01Z</time>
</trkpt>
<trkpt lat="34.788939" lon="135.704281">
 <ele>177.1</ele>
 <time>2020-03-24T15:28:01Z</time>
</trkpt>
<trkpt lat="34.788845" lon="135.704420">
 <ele>180.3</ele>
 <time>2020-03-24T15:28:01Z</time>
</trkpt>
<trkpt lat="34.788768" lon="135.704549">
 <ele>182.8</ele>
 <time>2020-03-24T15:28:01Z</time>
</trkpt>
<trkpt lat="34.788716" lon="135.704645">
 <ele>184.5</ele>
 <time>2020-03-24T15:28:01Z</time>
</trkpt>
<trkpt lat="34.788673" lon="135.704721">
 <ele>184.7</ele>
 <time>2020-03-24T15:28:01Z</time>
</trkpt>
<trkpt lat="34.788699" lon="135.704839">
 <ele>186.6</ele>
 <time>2020-03-24T15:28:01Z</time>
</trkpt>
<trkpt lat="34.788733" lon="135.704935">
 <ele>188.5</ele>
 <time>2020-03-24T15:28:01Z</time>
</trkpt>
<trkpt lat="34.788725" lon="135.705010">
 <ele>189</ele>
 <time>2020-03-24T15:28:02Z</time>
</trkpt>
<trkpt lat="34.788716" lon="135.705107">
 <ele>191.1</ele>
 <time>2020-03-24T15:28:02Z</time>
</trkpt>
<trkpt lat="34.788707" lon="135.705193">
 <ele>190.9</ele>
 <time>2020-03-24T15:28:02Z</time>
</trkpt>
<trkpt lat="34.788759" lon="135.705354">
 <ele>196.4</ele>
 <time>2020-03-24T15:28:02Z</time>
</trkpt>
<trkpt lat="34.788819" lon="135.705515">
 <ele>200.8</ele>
 <time>2020-03-24T15:28:02Z</time>
</trkpt>
<trkpt lat="34.788828" lon="135.705611">
 <ele>203.6</ele>
 <time>2020-03-24T15:28:02Z</time>
</trkpt>
<trkpt lat="34.788853" lon="135.705729">
 <ele>205.7</ele>
 <time>2020-03-24T15:28:02Z</time>
</trkpt>
<trkpt lat="34.788853" lon="135.705793">
 <ele>204.7</ele>
 <time>2020-03-24T15:28:02Z</time>
</trkpt>
<trkpt lat="34.788750" lon="135.705836">
 <ele>206.6</ele>
 <time>2020-03-24T15:28:03Z</time>
</trkpt>
<trkpt lat="34.788682" lon="135.705869">
 <ele>209.1</ele>
 <time>2020-03-24T15:28:03Z</time>
</trkpt>
<trkpt lat="34.788596" lon="135.705869">
 <ele>213.7</ele>
 <time>2020-03-24T15:28:03Z</time>
</trkpt>
<trkpt lat="34.788493" lon="135.705879">
 <ele>218.9</ele>
 <time>2020-03-24T15:28:03Z</time>
</trkpt>
<trkpt lat="34.788433" lon="135.705944">
 <ele>220.9</ele>
 <time>2020-03-24T15:28:03Z</time>
</trkpt>
<trkpt lat="34.788424" lon="135.706040">
 <ele>225.7</ele>
 <time>2020-03-24T15:28:03Z</time>
</trkpt>
<trkpt lat="34.788390" lon="135.706126">
 <ele>230</ele>
 <time>2020-03-24T15:28:03Z</time>
</trkpt>
<trkpt lat="34.788390" lon="135.706190">
 <ele>232.3</ele>
 <time>2020-03-24T15:28:03Z</time>
</trkpt>
<trkpt lat="34.788347" lon="135.706266">
 <ele>234</ele>
 <time>2020-03-24T15:28:04Z</time>
</trkpt>
<trkpt lat="34.788287" lon="135.706362">
 <ele>236.6</ele>
 <time>2020-03-24T15:28:04Z</time>
</trkpt>
<trkpt lat="34.788158" lon="135.706459">
 <ele>236.8</ele>
 <time>2020-03-24T15:28:04Z</time>
</trkpt>
<trkpt lat="34.788089" lon="135.706523">
 <ele>235.3</ele>
 <time>2020-03-24T15:28:04Z</time>
</trkpt>
<trkpt lat="34.787995" lon="135.706609">
 <ele>237.3</ele>
 <time>2020-03-24T15:28:04Z</time>
</trkpt>
<trkpt lat="34.787892" lon="135.706727">
 <ele>242.6</ele>
 <time>2020-03-24T15:28:04Z</time>
</trkpt>
<trkpt lat="34.787669" lon="135.706823">
 <ele>256</ele>
 <time>2020-03-24T15:28:04Z</time>
</trkpt>
<trkpt lat="34.787523" lon="135.706899">
 <ele>262.1</ele>
 <time>2020-03-24T15:28:05Z</time>
</trkpt>
<trkpt lat="34.787446" lon="135.707059">
 <ele>269.7</ele>
 <time>2020-03-24T15:28:05Z</time>
</trkpt>
<trkpt lat="34.787403" lon="135.707177">
 <ele>271.3</ele>
 <time>2020-03-24T15:28:05Z</time>
</trkpt>
<trkpt lat="34.787334" lon="135.707328">
 <ele>269.3</ele>
 <time>2020-03-24T15:28:05Z</time>
</trkpt>
<trkpt lat="34.787274" lon="135.707446">
 <ele>269</ele>
 <time>2020-03-24T15:28:05Z</time>
</trkpt>
<trkpt lat="34.787231" lon="135.707542">
 <ele>267.1</ele>
 <time>2020-03-24T15:28:05Z</time>
</trkpt>
<trkpt lat="34.787163" lon="135.707596">
 <ele>269.3</ele>
 <time>2020-03-24T15:28:05Z</time>
</trkpt>
<trkpt lat="34.787085" lon="135.707671">
 <ele>269</ele>
 <time>2020-03-24T15:28:05Z</time>
</trkpt>
<trkpt lat="34.787060" lon="135.707757">
 <ele>274.2</ele>
 <time>2020-03-24T15:28:06Z</time>
</trkpt>
<trkpt lat="34.787034" lon="135.707864">
 <ele>280.4</ele>
 <time>2020-03-24T15:28:06Z</time>
</trkpt>
<trkpt lat="34.787025" lon="135.707928">
 <ele>282.2</ele>
 <time>2020-03-24T15:28:06Z</time>
</trkpt>
<trkpt lat="34.787008" lon="135.707982">
 <ele>285.4</ele>
 <time>2020-03-24T15:28:06Z</time>
</trkpt>
<trkpt lat="34.786957" lon="135.708036">
 <ele>286.8</ele>
 <time>2020-03-24T15:28:06Z</time>
</trkpt>
<trkpt lat="34.786905" lon="135.708068">
 <ele>286.8</ele>
 <time>2020-03-24T15:28:06Z</time>
</trkpt>
<trkpt lat="34.786879" lon="135.708111">
 <ele>287.9</ele>
 <time>2020-03-24T15:28:06Z</time>
</trkpt>
<trkpt lat="34.786862" lon="135.708229">
 <ele>292.5</ele>
 <time>2020-03-24T15:28:06Z</time>
</trkpt>
<trkpt lat="34.786896" lon="135.708358">
 <ele>299.4</ele>
 <time>2020-03-24T15:28:07Z</time>
</trkpt>
<trkpt lat="34.786914" lon="135.708443">
 <ele>303.6</ele>
 <time>2020-03-24T15:28:07Z</time>
</trkpt>
<trkpt lat="34.786931" lon="135.708529">
 <ele>305.7</ele>
 <time>2020-03-24T15:28:07Z</time>
</trkpt>
<trkpt lat="34.786939" lon="135.708615">
 <ele>306.8</ele>
 <time>2020-03-24T15:28:07Z</time>
</trkpt>
<trkpt lat="34.786948" lon="135.708680">
 <ele>307.3</ele>
 <time>2020-03-24T15:28:07Z</time>
</trkpt>
<trkpt lat="34.786982" lon="135.708765">
 <ele>307.6</ele>
 <time>2020-03-24T15:28:07Z</time>
</trkpt>
<trkpt lat="34.786991" lon="135.708808">
 <ele>306.7</ele>
 <time>2020-03-24T15:28:07Z</time>
</trkpt>
<trkpt lat="34.786991" lon="135.708883">
 <ele>310</ele>
 <time>2020-03-24T15:28:07Z</time>
</trkpt>
<trkpt lat="34.787008" lon="135.708969">
 <ele>313.9</ele>
 <time>2020-03-24T15:28:08Z</time>
</trkpt>
<trkpt lat="34.787017" lon="135.709012">
 <ele>315.7</ele>
 <time>2020-03-24T15:28:08Z</time>
</trkpt>
<trkpt lat="34.787060" lon="135.709098">
 <ele>316.5</ele>
 <time>2020-03-24T15:28:08Z</time>
</trkpt>
<trkpt lat="34.787120" lon="135.709205">
 <ele>316.3</ele>
 <time>2020-03-24T15:28:08Z</time>
</trkpt>
<trkpt lat="34.787042" lon="135.709270">
 <ele>320.4</ele>
 <time>2020-03-24T15:28:08Z</time>
</trkpt>
<trkpt lat="34.786974" lon="135.709259">
 <ele>324.5</ele>
 <time>2020-03-24T15:28:08Z</time>
</trkpt>
<trkpt lat="34.786888" lon="135.709313">
 <ele>329.4</ele>
 <time>2020-03-24T15:28:08Z</time>
</trkpt>
<trkpt lat="34.786785" lon="135.709398">
 <ele>333.8</ele>
 <time>2020-03-24T15:28:09Z</time>
</trkpt>
<trkpt lat="34.786716" lon="135.709441">
 <ele>337</ele>
 <time>2020-03-24T15:28:09Z</time>
</trkpt>
<trkpt lat="34.786665" lon="135.709549">
 <ele>339.3</ele>
 <time>2020-03-24T15:28:09Z</time>
</trkpt>
<trkpt lat="34.786556" lon="135.709528">
 <ele>340.4</ele>
 <time>2020-03-24T15:28:09Z</time>
</trkpt>
<trkpt lat="34.786665" lon="135.709549">
 <ele>339.3</ele>
 <time>2020-03-24T15:28:09Z</time>
</trkpt>
<trkpt lat="34.786716" lon="135.709441">
 <ele>337</ele>
 <time>2020-03-24T15:28:09Z</time>
</trkpt>
<trkpt lat="34.786785" lon="135.709398">
 <ele>333.8</ele>
 <time>2020-03-24T15:28:09Z</time>
</trkpt>
<trkpt lat="34.786888" lon="135.709313">
 <ele>329.4</ele>
 <time>2020-03-24T15:28:09Z</time>
</trkpt>
<trkpt lat="34.786974" lon="135.709259">
 <ele>324.5</ele>
 <time>2020-03-24T15:28:10Z</time>
</trkpt>
<trkpt lat="34.787042" lon="135.709270">
 <ele>320.4</ele>
 <time>2020-03-24T15:28:10Z</time>
</trkpt>
<trkpt lat="34.787120" lon="135.709205">
 <ele>316.3</ele>
 <time>2020-03-24T15:28:10Z</time>
</trkpt>
<trkpt lat="34.787060" lon="135.709098">
 <ele>316.5</ele>
 <time>2020-03-24T15:28:10Z</time>
</trkpt>
<trkpt lat="34.787017" lon="135.709012">
 <ele>315.7</ele>
 <time>2020-03-24T15:28:10Z</time>
</trkpt>
<trkpt lat="34.787008" lon="135.708969">
 <ele>313.9</ele>
 <time>2020-03-24T15:28:10Z</time>
</trkpt>
<trkpt lat="34.786991" lon="135.708883">
 <ele>310</ele>
 <time>2020-03-24T15:28:10Z</time>
</trkpt>
<trkpt lat="34.786991" lon="135.708808">
 <ele>306.7</ele>
 <time>2020-03-24T15:28:11Z</time>
</trkpt>
<trkpt lat="34.786982" lon="135.708765">
 <ele>307.6</ele>
 <time>2020-03-24T15:28:11Z</time>
</trkpt>
<trkpt lat="34.786948" lon="135.708680">
 <ele>307.3</ele>
 <time>2020-03-24T15:28:11Z</time>
</trkpt>
<trkpt lat="34.786939" lon="135.708615">
 <ele>306.8</ele>
 <time>2020-03-24T15:28:11Z</time>
</trkpt>
<trkpt lat="34.786931" lon="135.708529">
 <ele>305.7</ele>
 <time>2020-03-24T15:28:11Z</time>
</trkpt>
<trkpt lat="34.786914" lon="135.708443">
 <ele>303.6</ele>
 <time>2020-03-24T15:28:11Z</time>
</trkpt>
<trkpt lat="34.786896" lon="135.708358">
 <ele>299.4</ele>
 <time>2020-03-24T15:28:11Z</time>
</trkpt>
<trkpt lat="34.786862" lon="135.708229">
 <ele>292.5</ele>
 <time>2020-03-24T15:28:11Z</time>
</trkpt>
<trkpt lat="34.786879" lon="135.708111">
 <ele>287.9</ele>
 <time>2020-03-24T15:28:12Z</time>
</trkpt>
<trkpt lat="34.786905" lon="135.708068">
 <ele>286.8</ele>
 <time>2020-03-24T15:28:12Z</time>
</trkpt>
<trkpt lat="34.786957" lon="135.708036">
 <ele>286.8</ele>
 <time>2020-03-24T15:28:12Z</time>
</trkpt>
<trkpt lat="34.787008" lon="135.707982">
 <ele>285.4</ele>
 <time>2020-03-24T15:28:12Z</time>
</trkpt>
<trkpt lat="34.787025" lon="135.707928">
 <ele>282.2</ele>
 <time>2020-03-24T15:28:12Z</time>
</trkpt>
<trkpt lat="34.787034" lon="135.707864">
 <ele>280.4</ele>
 <time>2020-03-24T15:28:12Z</time>
</trkpt>
<trkpt lat="34.787060" lon="135.707757">
 <ele>274.2</ele>
 <time>2020-03-24T15:28:12Z</time>
</trkpt>
<trkpt lat="34.787085" lon="135.707671">
 <ele>269</ele>
 <time>2020-03-24T15:28:12Z</time>
</trkpt>
<trkpt lat="34.787163" lon="135.707596">
 <ele>269.3</ele>
 <time>2020-03-24T15:28:13Z</time>
</trkpt>
<trkpt lat="34.787231" lon="135.707542">
 <ele>267.1</ele>
 <time>2020-03-24T15:28:13Z</time>
</trkpt>
<trkpt lat="34.787274" lon="135.707446">
 <ele>269</ele>
 <time>2020-03-24T15:28:13Z</time>
</trkpt>
<trkpt lat="34.787334" lon="135.707328">
 <ele>269.3</ele>
 <time>2020-03-24T15:28:13Z</time>
</trkpt>
<trkpt lat="34.787403" lon="135.707177">
 <ele>271.3</ele>
 <time>2020-03-24T15:28:13Z</time>
</trkpt>
<trkpt lat="34.787446" lon="135.707059">
 <ele>269.7</ele>
 <time>2020-03-24T15:28:13Z</time>
</trkpt>
<trkpt lat="34.787523" lon="135.706899">
 <ele>262.1</ele>
 <time>2020-03-24T15:28:13Z</time>
</trkpt>
<trkpt lat="34.787669" lon="135.706823">
 <ele>256</ele>
 <time>2020-03-24T15:28:13Z</time>
</trkpt>
<trkpt lat="34.787892" lon="135.706727">
 <ele>242.6</ele>
 <time>2020-03-24T15:28:14Z</time>
</trkpt>
<trkpt lat="34.787995" lon="135.706609">
 <ele>237.3</ele>
 <time>2020-03-24T15:28:14Z</time>
</trkpt>
<trkpt lat="34.788089" lon="135.706523">
 <ele>235.3</ele>
 <time>2020-03-24T15:28:14Z</time>
</trkpt>
<trkpt lat="34.788158" lon="135.706459">
 <ele>236.8</ele>
 <time>2020-03-24T15:28:14Z</time>
</trkpt>
<trkpt lat="34.788287" lon="135.706362">
 <ele>236.6</ele>
 <time>2020-03-24T15:28:14Z</time>
</trkpt>
<trkpt lat="34.788347" lon="135.706266">
 <ele>234</ele>
 <time>2020-03-24T15:28:14Z</time>
</trkpt>
<trkpt lat="34.788390" lon="135.706190">
 <ele>232.3</ele>
 <time>2020-03-24T15:28:14Z</time>
</trkpt>
<trkpt lat="34.788390" lon="135.706126">
 <ele>230</ele>
 <time>2020-03-24T15:28:15Z</time>
</trkpt>
<trkpt lat="34.788424" lon="135.706040">
 <ele>225.7</ele>
 <time>2020-03-24T15:28:15Z</time>
</trkpt>
<trkpt lat="34.788433" lon="135.705944">
 <ele>220.9</ele>
 <time>2020-03-24T15:28:15Z</time>
</trkpt>
<trkpt lat="34.788493" lon="135.705879">
 <ele>218.9</ele>
 <time>2020-03-24T15:28:15Z</time>
</trkpt>
<trkpt lat="34.788596" lon="135.705869">
 <ele>213.7</ele>
 <time>2020-03-24T15:28:15Z</time>
</trkpt>
<trkpt lat="34.788682" lon="135.705869">
 <ele>209.1</ele>
 <time>2020-03-24T15:28:15Z</time>
</trkpt>
<trkpt lat="34.788750" lon="135.705836">
 <ele>206.6</ele>
 <time>2020-03-24T15:28:15Z</time>
</trkpt>
<trkpt lat="34.788853" lon="135.705793">
 <ele>204.7</ele>
 <time>2020-03-24T15:28:15Z</time>
</trkpt>
<trkpt lat="34.788853" lon="135.705729">
 <ele>205.7</ele>
 <time>2020-03-24T15:28:16Z</time>
</trkpt>
<trkpt lat="34.788828" lon="135.705611">
 <ele>203.6</ele>
 <time>2020-03-24T15:28:16Z</time>
</trkpt>
<trkpt lat="34.788819" lon="135.705515">
 <ele>200.8</ele>
 <time>2020-03-24T15:28:16Z</time>
</trkpt>
<trkpt lat="34.788759" lon="135.705354">
 <ele>196.4</ele>
 <time>2020-03-24T15:28:16Z</time>
</trkpt>
<trkpt lat="34.788707" lon="135.705193">
 <ele>190.9</ele>
 <time>2020-03-24T15:28:16Z</time>
</trkpt>
<trkpt lat="34.788716" lon="135.705107">
 <ele>191.1</ele>
 <time>2020-03-24T15:28:16Z</time>
</trkpt>
<trkpt lat="34.788725" lon="135.705010">
 <ele>189</ele>
 <time>2020-03-24T15:28:16Z</time>
</trkpt>
<trkpt lat="34.788733" lon="135.704935">
 <ele>188.5</ele>
 <time>2020-03-24T15:28:16Z</time>
</trkpt>
<trkpt lat="34.788699" lon="135.704839">
 <ele>186.6</ele>
 <time>2020-03-24T15:28:17Z</time>
</trkpt>
<trkpt lat="34.788673" lon="135.704721">
 <ele>184.7</ele>
 <time>2020-03-24T15:28:17Z</time>
</trkpt>
<trkpt lat="34.788716" lon="135.704645">
 <ele>184.5</ele>
 <time>2020-03-24T15:28:17Z</time>
</trkpt>
<trkpt lat="34.788768" lon="135.704549">
 <ele>182.8</ele>
 <time>2020-03-24T15:28:17Z</time>
</trkpt>
<trkpt lat="34.788845" lon="135.704420">
 <ele>180.3</ele>
 <time>2020-03-24T15:28:17Z</time>
</trkpt>
<trkpt lat="34.788939" lon="135.704281">
 <ele>177.1</ele>
 <time>2020-03-24T15:28:17Z</time>
</trkpt>
<trkpt lat="34.789016" lon="135.704163">
 <ele>176.7</ele>
 <time>2020-03-24T15:28:17Z</time>
</trkpt>
<trkpt lat="34.789051" lon="135.704066">
 <ele>174.7</ele>
 <time>2020-03-24T15:28:18Z</time>
</trkpt>
<trkpt lat="34.789119" lon="135.703991">
 <ele>175.3</ele>
 <time>2020-03-24T15:28:18Z</time>
</trkpt>
<trkpt lat="34.789214" lon="135.703905">
 <ele>171.4</ele>
 <time>2020-03-24T15:28:18Z</time>
</trkpt>
<trkpt lat="34.789300" lon="135.703776">
 <ele>169.6</ele>
 <time>2020-03-24T15:28:18Z</time>
</trkpt>
<trkpt lat="34.789317" lon="135.703723">
 <ele>168.3</ele>
 <time>2020-03-24T15:28:18Z</time>
</trkpt>
<trkpt lat="34.789351" lon="135.703637">
 <ele>166.1</ele>
 <time>2020-03-24T15:28:18Z</time>
</trkpt>
<trkpt lat="34.789343" lon="135.703540">
 <ele>165.5</ele>
 <time>2020-03-24T15:28:18Z</time>
</trkpt>
<trkpt lat="34.789360" lon="135.703476">
 <ele>163.6</ele>
 <time>2020-03-24T15:28:18Z</time>
</trkpt>
<trkpt lat="34.789437" lon="135.703379">
 <ele>158.2</ele>
 <time>2020-03-24T15:28:19Z</time>
</trkpt>
<trkpt lat="34.789531" lon="135.703283">
 <ele>154.8</ele>
 <time>2020-03-24T15:28:19Z</time>
</trkpt>
<trkpt lat="34.789634" lon="135.703176">
 <ele>149.2</ele>
 <time>2020-03-24T15:28:19Z</time>
</trkpt>
<trkpt lat="34.789746" lon="135.703047">
 <ele>143.9</ele>
 <time>2020-03-24T15:28:19Z</time>
</trkpt>
<trkpt lat="34.789832" lon="135.702993">
 <ele>140</ele>
 <time>2020-03-24T15:28:19Z</time>
</trkpt>
<trkpt lat="34.790004" lon="135.702832">
 <ele>131.2</ele>
 <time>2020-03-24T15:28:19Z</time>
</trkpt>
<trkpt lat="34.790261" lon="135.702693">
 <ele>121.8</ele>
 <time>2020-03-24T15:28:19Z</time>
</trkpt>
<trkpt lat="34.790510" lon="135.702543">
 <ele>114</ele>
 <time>2020-03-24T15:28:19Z</time>
</trkpt>
<trkpt lat="34.790613" lon="135.702435">
 <ele>109.2</ele>
 <time>2020-03-24T15:28:20Z</time>
</trkpt>
<trkpt lat="34.790724" lon="135.702307">
 <ele>101.6</ele>
 <time>2020-03-24T15:28:20Z</time>
</trkpt>
<trkpt lat="34.790767" lon="135.702253">
 <ele>99.6</ele>
 <time>2020-03-24T15:28:20Z</time>
</trkpt>
<trkpt lat="34.790750" lon="135.702124">
 <ele>93.1</ele>
 <time>2020-03-24T15:28:20Z</time>
</trkpt>
<trkpt lat="34.790724" lon="135.701995">
 <ele>87.8</ele>
 <time>2020-03-24T15:28:20Z</time>
</trkpt>
<trkpt lat="34.790690" lon="135.701824">
 <ele>83.4</ele>
 <time>2020-03-24T15:28:20Z</time>
</trkpt>
<trkpt lat="34.790682" lon="135.701749">
 <ele>81.1</ele>
 <time>2020-03-24T15:28:20Z</time>
</trkpt>
<trkpt lat="34.790630" lon="135.701588">
 <ele>81.2</ele>
 <time>2020-03-24T15:28:20Z</time>
</trkpt>
<trkpt lat="34.790553" lon="135.701448">
 <ele>78.6</ele>
 <time>2020-03-24T15:28:21Z</time>
</trkpt>
<trkpt lat="34.790570" lon="135.701373">
 <ele>77.4</ele>
 <time>2020-03-24T15:28:21Z</time>
</trkpt>
<trkpt lat="34.790621" lon="135.701287">
 <ele>74.9</ele>
 <time>2020-03-24T15:28:21Z</time>
</trkpt>
<trkpt lat="34.790733" lon="135.701169">
 <ele>72.2</ele>
 <time>2020-03-24T15:28:21Z</time>
</trkpt>
<trkpt lat="34.790845" lon="135.701008">
 <ele>69.3</ele>
 <time>2020-03-24T15:28:21Z</time>
</trkpt>
<trkpt lat="34.790973" lon="135.700826">
 <ele>66.2</ele>
 <time>2020-03-24T15:28:21Z</time>
</trkpt>
<trkpt lat="34.791119" lon="135.700611">
 <ele>63.5</ele>
 <time>2020-03-24T15:28:21Z</time>
</trkpt>
<trkpt lat="34.791231" lon="135.700375">
 <ele>61.5</ele>
 <time>2020-03-24T15:28:21Z</time>
</trkpt>
<trkpt lat="34.791308" lon="135.700150">
 <ele>60.6</ele>
 <time>2020-03-24T15:28:22Z</time>
</trkpt>
<trkpt lat="34.791411" lon="135.699871">
 <ele>59.1</ele>
 <time>2020-03-24T15:28:22Z</time>
</trkpt>
<trkpt lat="34.791488" lon="135.699807">
 <ele>58.7</ele>
 <time>2020-03-24T15:28:22Z</time>
</trkpt>
<trkpt lat="34.791780" lon="135.699807">
 <ele>59.1</ele>
 <time>2020-03-24T15:28:22Z</time>
</trkpt>
<trkpt lat="34.792063" lon="135.699828">
 <ele>59.8</ele>
 <time>2020-03-24T15:28:22Z</time>
</trkpt>
<trkpt lat="34.792235" lon="135.699850">
 <ele>59.9</ele>
 <time>2020-03-24T15:28:22Z</time>
</trkpt>
<trkpt lat="34.792450" lon="135.699839">
 <ele>59.7</ele>
 <time>2020-03-24T15:28:22Z</time>
</trkpt>
<trkpt lat="34.793076" lon="135.699839">
 <ele>59.8</ele>
 <time>2020-03-24T15:28:22Z</time>
</trkpt>
<trkpt lat="34.793334" lon="135.699817">
 <ele>60</ele>
 <time>2020-03-24T15:28:23Z</time>
</trkpt>
<trkpt lat="34.793377" lon="135.699667">
 <ele>59.4</ele>
 <time>2020-03-24T15:28:23Z</time>
</trkpt>
<trkpt lat="34.793497" lon="135.699206">
 <ele>58.3</ele>
 <time>2020-03-24T15:28:23Z</time>
</trkpt>
<trkpt lat="34.793668" lon="135.698584">
 <ele>56.6</ele>
 <time>2020-03-24T15:28:23Z</time>
</trkpt>
<trkpt lat="34.794055" lon="135.697350">
 <ele>53.6</ele>
 <time>2020-03-24T15:28:23Z</time>
</trkpt>
<trkpt lat="34.794201" lon="135.696813">
 <ele>53.8</ele>
 <time>2020-03-24T15:28:23Z</time>
</trkpt>
<trkpt lat="34.794321" lon="135.696363">
 <ele>50.4</ele>
 <time>2020-03-24T15:28:23Z</time>
</trkpt>
<trkpt lat="34.794398" lon="135.696202">
 <ele>49.6</ele>
 <time>2020-03-24T15:28:24Z</time>
</trkpt>
<trkpt lat="34.794544" lon="135.695923">
 <ele>48.5</ele>
 <time>2020-03-24T15:28:24Z</time>
</trkpt>
<trkpt lat="34.794681" lon="135.695623">
 <ele>47.8</ele>
 <time>2020-03-24T15:28:24Z</time>
</trkpt>
<trkpt lat="34.794784" lon="135.695419">
 <ele>47.1</ele>
 <time>2020-03-24T15:28:24Z</time>
</trkpt>
<trkpt lat="34.794913" lon="135.695172">
 <ele>45.9</ele>
 <time>2020-03-24T15:28:24Z</time>
</trkpt>
<trkpt lat="34.795042" lon="135.694882">
 <ele>44.8</ele>
 <time>2020-03-24T15:28:24Z</time>
</trkpt>
<trkpt lat="34.795162" lon="135.694528">
 <ele>43.5</ele>
 <time>2020-03-24T15:28:24Z</time>
</trkpt>
<trkpt lat="34.795248" lon="135.694271">
 <ele>42.5</ele>
 <time>2020-03-24T15:28:24Z</time>
</trkpt>
<trkpt lat="34.795291" lon="135.694056">
 <ele>41.7</ele>
 <time>2020-03-24T15:28:25Z</time>
</trkpt>
<trkpt lat="34.795334" lon="135.693777">
 <ele>40</ele>
 <time>2020-03-24T15:28:25Z</time>
</trkpt>
<trkpt lat="34.795385" lon="135.693466">
 <ele>39</ele>
 <time>2020-03-24T15:28:25Z</time>
</trkpt>
<trkpt lat="34.795437" lon="135.693219">
 <ele>38.4</ele>
 <time>2020-03-24T15:28:25Z</time>
</trkpt>
<trkpt lat="34.795488" lon="135.693176">
 <ele>38.1</ele>
 <time>2020-03-24T15:28:25Z</time>
</trkpt>
<trkpt lat="34.795677" lon="135.693251">
 <ele>37.5</ele>
 <time>2020-03-24T15:28:25Z</time>
</trkpt>
<trkpt lat="34.796046" lon="135.693423">
 <ele>37.7</ele>
 <time>2020-03-24T15:28:25Z</time>
</trkpt>
<trkpt lat="34.796192" lon="135.693520">
 <ele>37.6</ele>
 <time>2020-03-24T15:28:25Z</time>
</trkpt>
<trkpt lat="34.796458" lon="135.693702">
 <ele>38.3</ele>
 <time>2020-03-24T15:28:26Z</time>
</trkpt>
<trkpt lat="34.796724" lon="135.693927">
 <ele>38.9</ele>
 <time>2020-03-24T15:28:26Z</time>
</trkpt>
<trkpt lat="34.797016" lon="135.694281">
 <ele>40</ele>
 <time>2020-03-24T15:28:26Z</time>
</trkpt>
<trkpt lat="34.797325" lon="135.694603">
 <ele>41.6</ele>
 <time>2020-03-24T15:28:26Z</time>
</trkpt>
<trkpt lat="34.797531" lon="135.694882">
 <ele>42.9</ele>
 <time>2020-03-24T15:28:26Z</time>
</trkpt>
<trkpt lat="34.797806" lon="135.695183">
 <ele>43.6</ele>
 <time>2020-03-24T15:28:26Z</time>
</trkpt>
<trkpt lat="34.798175" lon="135.695462">
 <ele>45.7</ele>
 <time>2020-03-24T15:28:26Z</time>
</trkpt>
<trkpt lat="34.798561" lon="135.695633">
 <ele>46.1</ele>
 <time>2020-03-24T15:28:26Z</time>
</trkpt>
<trkpt lat="34.799110" lon="135.695901">
 <ele>46.8</ele>
 <time>2020-03-24T15:28:27Z</time>
</trkpt>
<trkpt lat="34.799496" lon="135.696127">
 <ele>47.3</ele>
 <time>2020-03-24T15:28:27Z</time>
</trkpt>
<trkpt lat="34.799951" lon="135.696449">
 <ele>47.8</ele>
 <time>2020-03-24T15:28:27Z</time>
</trkpt>
<trkpt lat="34.800277" lon="135.696652">
 <ele>48.6</ele>
 <time>2020-03-24T15:28:27Z</time>
</trkpt>
<trkpt lat="34.800483" lon="135.696771">
 <ele>48.6</ele>
 <time>2020-03-24T15:28:27Z</time>
</trkpt>
<trkpt lat="34.800810" lon="135.696921">
 <ele>49</ele>
 <time>2020-03-24T15:28:27Z</time>
</trkpt>
<trkpt lat="34.801058" lon="135.697028">
 <ele>49.1</ele>
 <time>2020-03-24T15:28:27Z</time>
</trkpt>
<trkpt lat="34.801050" lon="135.697146">
 <ele>49.2</ele>
 <time>2020-03-24T15:28:27Z</time>
</trkpt>
<trkpt lat="34.801007" lon="135.697200">
 <ele>49.2</ele>
 <time>2020-03-24T15:28:28Z</time>
</trkpt>
<trkpt lat="34.800964" lon="135.697328">
 <ele>49.1</ele>
 <time>2020-03-24T15:28:28Z</time>
</trkpt>
<trkpt lat="34.800938" lon="135.697446">
 <ele>49.1</ele>
 <time>2020-03-24T15:28:28Z</time>
</trkpt>
<trkpt lat="34.801179" lon="135.697446">
 <ele>49.2</ele>
 <time>2020-03-24T15:28:28Z</time>
</trkpt>
<trkpt lat="34.801170" lon="135.697543">
 <ele>49.3</ele>
 <time>2020-03-24T15:28:28Z</time>
</trkpt>
</trkseg>
</trk>
</gpx>

